{"data":{"norad_id":66274,"epoch":"2026-05-25T03:01:01.814880Z","epoch_age_seconds":64434,"freshness":"FRESH","line1":"1 66274U 25247K   26145.12571545  .00008998  00000+0  31550-3 0  9993","line2":"2 66274  53.1595 196.5986 0001205  87.3789 272.7349 15.30203797 32735","mean_motion":15.30203797,"eccentricity":0.0001205,"inclination_deg":53.1595,"raan_deg":196.5986,"arg_perigee_deg":87.3789,"mean_anomaly_deg":272.7349,"bstar":0.0003155,"rev_number":3273,"period_min":94.105112196372,"perigee_km":474.37790472694,"apogee_km":476.02955984342,"semimajor_km":6853.3407322852,"source":"CELESTRAK","updated_at":"2026-05-25T13:38:21.161526Z"}}